Location: Brunsbüttel
(52.3892°N, 10.6138°E)
Time: 20:27:47
(UTC+00:00)

Alouette 2 Rocket - Pass Details

Date: 19 May 2025
Orbit: 501 x 2618 km, 79.8° (Epoch: 20 June)

Event Time Altitude Azimuth Distance (km) Brightness Sun altitude
Rises 19:50:19 0° 340° (NNW) 2,617 8.1 -5.2°
Reaches altitude 10° 19:52:21 10° 335° (NNW) 1,731 7.2 -5.5°
Maximum altitude 19:55:51 51° 259° (W) 692 4.1 -5.8°
Drops below altitude 10° 20:00:01 10° 183° (S) 2,060 5.9 -6.3°
Sets 20:02:38 0° 179° (S) 3,188 6.8 -6.6°
